EHI
0 0 0 0 0 0 0 0 0 0 0 0 0 0 0 0 0 0 0 0 0 0 0 0 0 0 0 0 0 0 0 0 0 0 0 0 0 0 0 0 0 0 0
0 0 0 0 0 0 0 0 0 0 0 0 0 0 0 0 0 0 0 0 0 0 0 0 0 0 0 0 0 0 0 0 0 0 0 0 0 0 0 0 0 0 0
0 0 0 0 0 0 0 0 0 0 0 0 0 0 0 0 0 0 0 0 0 0 0 0 0 0 0 0 0 0 0 0 0 0 0 0 0 0 0 0 0 0 0
0 0 0 0 0 0 0 0 0 0 0 0 0 0 0 0 0 0 0 0 0 0 0 0 0 0 0 0 0 0 0 0 0 0 0 0 0 0 0 0 0 0 0
0 0 0 0 0 0 0 0 0 0 0 0 0 0 0 0 0 0 0 0 0 0 0 0 0 0 0 0 0 0 0 0 0 0 0 0 0 0 0 0 0 0 0
0 0 0 0 0 0 0 0 0 0 0 0 0 0 0 0 0 0 0 0 0 0 0 0 0 0 0 0 0 0 0 0 0 0 0 0 0 0 0 0 0 0 0
0 0 0 0 0 0 0 0 0 0 0 0 0 0 0 0 0 0 0 0 0 0 0 0 0 0 0 0 0 0 0 0 0 0 0 0 0 0 0 0 0 0 0
0 0 0 0 0 0 0 0 0 0 0 0 0 0 0 0 0 0 0 0 0 0 0 0 0 0 0 0 0 0 0 0 0 0 0 0 0 0 0 0 0 0 0
0 0 0 0 0 0 0 0 0 0 0 0 0 0 0 0 0 0 0 0 0 0 0 0 0 0 0 0 0 0 0 0 0 0 0 0 0 0 0 0 0 0 0
0 0 0 0 0 0 0 0 0 0 0 0 0 0 0 0 0 0 0 0 0 0 0 0 0 0 0 0 0 0 0 0 0 0 0 0 0 0 0 0 0 0 0
0 0 0 0 0 0 0 0 0 0 0 0 0 0 0 0 0 0 0 0 0 0 0 0 0 0 0 0 0 0 0 0 0 0 0 0 0 0 0 0 0 0 0
0 0 0 0 0 0 0 0 0 0 0 0 0 0 0 0 0 0 0 0 0 0 0 0 0 0 0 0 0 0 0 0 0 0 0 0 0 0 0 0 0 0 0
0 0 0 0 0 0 0 0 0 0 0 0 0 0 0 0 0 0 0 0 0 0 0 0 0 0 0 0 0 0 0 0 0 0 0 0 0 0 0 0 0 0 0
0 0 0 0 0 0 0 0 0 0 0 0 0 0 0 0 0 0 0 0 0 0 0 0 0 0 0 0 0 0 0 0 0 0 0 0 0 0 0 0 0 0 0
0 0 0 0 0 0 0 0 0 0 0 0 0 0 0 0 0 0 0 0 0 0 0 0 0 0 0 0 0 0 0 0 0 0 0 0 0 0 0 0 0 0 0
0 0 0 0 0 0 0 0 0 0 0 0 0 0 0 0 0 0 0 0 0 0 0 0 0 0 0 0 0 0 0 0 0 0 0 0 0 0 0 0 0 0 0
0 0 0 0 0 0 0 0 0 0 0 0 0 0 0 0 0 0 0 0 0 0 0 0 0 0 0 0 0 0 0 0 0 0 0 0 0 0 0 0 0 0 0
0 0 0 0 0 0 0 0 0 0 0 0 0 0 0 0 0 0 0 0 0 0 0 0 0 0 0 0 0 0 0 0 0 0 0 0 0 0 0 0 0 0 0
0 0 0 0 0 0 0 0 0 0 0 0 0 0 0 0 0 0 0 0 0 0 0 0 0 0 0 0 0 0 0 0 0 0 0 0 0 0 0 0 0 0 0
0 0 0 0 0 0 0 0 0 0 0 0 0 0 0 0 0 0 0 0 0 0 0 0 0 0 0 0 0 0 0 0 0 0 0 0 0 0 0 0 0 0 0
0 0 0 0 0 0 0 0 0 0 0 0 0 0 0 0 0 0 0 0 0 0 0 0 0 0 0 0 0 0 0 0 0 0 0 0 0 0 0 0 0 0 0
0 0 0 0 0 0 0 0 0 0 0 0 0 0 0 0 0 0 0 0 0 0 0 0 0 0 0 0 0 0 0 0 0 0 0 0 0 0 0 0 0 0 0
0 0 0 0 0 0 0 0 0 0 0 0 0 0 0 0 0 0 0 0 0 0 0 0 0 0 0 0 0 0 0 0 0 0 0 0 0 0 0 0 0 0 0
0 0 0 0 0 0 0 0 0 0 0 0 0 0 0 0 0 0 0 0 0 0 0 0 0 0 0 0 0 0 0 0 0 0 0 0 0 0 0 0 0 0 0
0 0 0 0 0 0 0 0 0 0 0 0 0 0 0 0 0 0 0 0 0 0 0 0 0 0 0 0 0 0 0 0 0 0 0 0 0 0 0 0 0 0 0
0 0 0 0 0 0 0 0 0 0 0 0 0 0 0 0 0 0 0 0 0 0 0 0 0 0 0 0 0 0 0 0 0 0 0 0 0 0 0 0 0 0 0
Wind_Speed
3 3 2 3 3 3 3 3 3 3 3 3 3 3 3 4 4 3 3 9 9 8 8 8 8 8 7 7 6 6 5 5 5 5 5 4 4 3 2 1 0 0 1
3 3 2 2 2 2 2 3 3 2 2 2 2 3 4 4 3 3 2 6 10 10 9 9 9 9 8 8 8 7 6 6 6 6 6 6 6 5 5 4 3 2 1
3 2 2 2 2 2 2 2 2 1 1 1 3 4 4 4 3 4 3 3 4 9 10 10 9 8 8 9 8 8 7 7 7 7 8 8 8 7 7 7 6 5 4
4 3 2 2 2 2 1 1 1 1 2 2 3 3 3 3 4 4 3 2 2 3 6 9 8 8 7 8 8 8 8 7 7 8 8 9 9 9 9 9 8 8 7
4 3 2 2 2 1 1 1 2 2 2 3 3 3 3 3 4 3 3 3 2 2 2 4 6 5 5 6 7 8 8 7 7 8 9 9 10 11 11 11 10 10 9
2 2 2 2 2 1 2 2 3 3 2 2 3 3 4 4 4 4 3 2 1 1 2 2 1 2 3 4 5 7 8 8 7 7 8 9 10 10 11 12 12 12 12
2 2 1 2 1 1 2 3 2 2 2 1 2 3 4 6 6 4 2 1 1 2 3 3 2 2 1 1 4 6 8 9 8 7 7 8 9 10 11 12 13 13 13
1 1 1 1 1 1 2 2 2 2 2 2 2 2 3 3 2 2 1 2 2 2 3 4 4 4 3 3 6 9 9 9 10 9 8 7 8 9 10 11 11 12 13
2 2 1 1 0 0 1 2 1 2 2 2 3 3 2 3 2 2 1 2 2 3 3 4 6 6 6 5 5 9 11 10 10 9 9 7 7 8 8 9 10 10 10
2 1 1 0 1 1 1 1 1 1 2 3 2 3 3 2 1 2 1 1 3 4 4 4 5 6 6 5 7 10 11 11 10 10 9 8 7 7 7 8 8 8 8
3 2 1 0 0 0 1 1 1 2 2 2 2 2 2 2 3 3 3 1 1 2 3 4 4 5 6 6 5 9 12 12 11 11 10 9 8 7 6 6 5 5 5
2 3 2 1 1 1 1 1 1 2 2 2 2 1 1 1 2 2 3 2 1 1 3 4 4 4 4 5 7 11 11 12 12 11 10 9 8 8 8 6 5 3 2
2 3 3 2 2 2 1 1 1 1 1 1 1 1 0 0 1 1 2 2 1 1 2 3 4 3 4 4 4 9 10 11 12 11 11 12 12 11 11 8 6 5 3
3 3 3 2 2 2 2 1 0 0 1 1 1 1 1 1 1 1 1 1 1 1 2 3 2 3 3 3 5 8 6 11 12 12 13 13 13 13 13 12 10 8 6
3 3 2 2 2 2 2 2 1 1 1 1 1 1 1 1 1 1 1 0 2 2 2 3 2 2 2 2 5 4 4 9 11 12 12 12 12 13 12 13 12 10 9
3 2 2 2 2 2 2 2 1 1 2 2 1 2 2 1 1 1 1 1 0 1 2 2 2 2 2 3 6 4 4 9 10 11 11 12 12 12 12 12 11 11 10
3 2 2 2 2 2 2 1 1 1 2 2 2 2 2 2 2 1 1 1 1 1 2 2 2 1 2 3 3 3 3 3 4 9 10 10 10 10 10 11 10 10 9
3 3 2 2 2 2 2 2 2 2 2 3 2 3 2 3 3 2 2 2 2 2 2 3 2 1 2 1 2 2 2 3 2 6 8 8 8 9 9 9 9 9 9
3 3 3 3 3 3 3 3 3 3 3 3 3 3 3 3 3 2 3 2 2 2 2 3 2 1 1 1 1 2 3 2 2 4 6 7 7 7 7 8 8 8 8
3 3 3 3 3 3 3 3 3 4 4 5 5 4 4 3 3 2 2 2 2 2 3 3 3 2 1 1 2 2 2 2 2 3 4 4 5 6 6 7 7 8 7
4 3 3 3 3 2 2 2 3 4 4 4 4 4 4 5 6 4 3 3 2 2 3 3 2 2 1 1 1 1 2 2 2 3 3 2 2 2 2 4 5 6 6
4 3 3 3 3 2 4 5 4 4 4 4 3 3 3 4 6 7 8 8 6 4 3 2 2 2 1 1 1 2 2 2 2 3 3 3 1 1 1 1 3 5 5
4 3 3 3 3 4 6 5 6 4 3 3 3 2 2 3 4 3 5 7 7 8 6 3 3 2 2 1 2 2 1 1 1 2 2 2 2 2 2 2 3 3 4
4 3 3 3 4 5 7 6 6 3 3 2 2 3 3 3 2 3 3 4 3 3 4 4 3 3 3 3 2 1 1 1 2 1 1 1 2 2 3 2 1 1 3
3 3 3 3 4 5 7 7 6 2 2 2 2 2 3 3 4 4 3 3 2 2 4 5 5 4 4 4 3 2 2 2 1 1 2 1 2 3 3 2 2 3 5
4 4 3 3 4 4 8 8 7 2 2 2 2 2 2 4 5 4 2 2 2 1 2 1 1 1 1 2 3 3 2 1 0 1 2 2 2 3 4 3 2 3 4
Wind_Direction
171 165 177 174 196 188 172 200 231 235 222 236 238 247 264 252 241 222 183 192 198 213 233 246 255 258 256 254 255 256 252 246 240 240 240 240 240 237 235 239 240 22 47
171 158 193 178 207 189 191 205 230 238 239 246 262 266 260 264 257 252 218 200 207 214 227 241 251 258 261 261 259 255 252 246 243 240 237 236 236 235 234 232 231 238 241
162 161 206 188 207 205 210 220 265 288 299 293 277 269 263 262 269 267 252 212 200 213 222 236 247 256 262 266 268 266 259 251 246 244 240 237 235 234 234 231 229 231 233
166 172 199 207 219 202 185 203 254 286 273 267 268 273 273 269 264 266 268 247 205 192 211 223 239 252 263 272 276 275 269 263 251 247 244 241 238 236 236 233 231 229 229
174 173 193 214 215 192 192 212 220 226 252 264 272 280 287 286 274 270 266 264 234 183 170 196 216 235 261 279 288 291 287 278 266 254 249 247 242 237 236 235 234 231 229
173 171 191 223 215 194 212 217 230 237 239 253 280 282 273 266 260 253 250 249 237 158 121 97 148 227 245 278 306 312 312 305 291 274 260 252 248 242 239 237 234 232 230
174 172 190 221 215 206 223 230 231 242 245 245 281 287 272 253 244 236 216 184 106 90 89 77 73 61 31 19 349 343 337 332 320 304 288 269 258 249 245 242 239 235 232
104 142 172 212 207 221 246 251 246 236 237 209 210 270 302 309 288 227 153 123 98 75 74 70 63 53 50 51 36 22 5 347 333 321 305 293 272 261 254 249 246 241 234
92 67 49 28 327 211 237 251 251 229 243 249 215 210 235 263 325 344 56 83 77 69 65 63 63 53 49 50 38 22 14 360 344 330 318 310 298 279 270 262 256 251 236
125 115 99 359 301 272 246 255 260 243 236 249 257 233 223 217 241 296 339 42 64 63 60 62 59 54 46 46 39 23 14 3 353 343 335 325 319 304 289 280 273 261 243
139 128 104 78 338 355 355 326 304 279 249 244 243 247 252 251 225 223 251 257 51 55 59 63 60 52 46 44 36 21 18 10 1 354 349 343 337 331 326 317 304 276 253
123 105 83 58 40 44 24 339 302 290 278 267 265 251 231 230 227 221 235 227 183 99 67 58 58 54 48 44 31 22 21 16 9 4 3 8 13 8 3 4 0 342 307
110 88 69 52 43 36 15 354 331 316 322 309 290 282 286 269 273 243 236 239 197 152 116 75 54 52 49 42 19 19 24 22 19 21 27 34 34 30 24 16 11 14 24
96 85 71 59 46 33 14 8 4 352 21 11 4 12 48 30 7 334 248 219 216 201 143 115 70 51 43 37 23 34 27 29 31 33 38 40 39 36 33 31 32 36 52
89 77 69 56 48 39 21 20 50 55 71 65 56 62 75 53 37 20 9 144 195 209 181 117 96 51 38 44 35 45 29 36 39 41 44 44 43 40 37 37 40 48 59
82 82 75 62 54 46 40 45 54 55 77 75 74 84 78 61 49 33 22 32 68 182 155 111 102 75 45 47 45 45 38 45 43 44 45 44 43 42 39 39 42 45 51
91 88 81 71 66 57 52 72 86 82 95 86 72 85 79 70 69 42 36 47 44 81 134 111 93 89 69 49 32 30 39 43 35 42 41 40 40 39 40 40 40 41 43
94 87 82 77 68 57 48 64 89 83 94 95 86 91 85 79 67 46 49 55 54 55 112 129 112 92 79 67 46 39 39 46 31 39 37 37 37 36 38 40 40 39 38
105 97 91 88 78 62 55 62 81 82 83 83 77 80 76 82 72 57 58 59 51 60 81 116 114 94 81 60 47 35 38 28 21 36 35 31 32 34 36 38 39 34 29
111 103 95 93 91 85 78 79 88 90 84 75 67 67 65 74 80 75 70 59 62 76 88 104 106 98 84 53 65 39 18 4 4 26 19 14 25 32 36 38 34 26 18
120 118 116 116 114 112 108 104 103 103 100 93 79 75 75 79 76 73 75 57 61 82 89 99 103 92 77 63 53 26 24 347 4 26 5 347 7 14 22 36 36 20 12
134 133 133 133 129 117 119 117 113 109 115 118 114 106 103 85 86 81 78 70 69 85 100 103 109 116 114 93 65 47 43 33 334 340 11 326 357 17 3 67 19 11 2
145 144 141 137 128 131 140 138 134 126 130 135 139 135 120 107 95 95 87 78 67 66 71 105 114 119 112 94 89 55 42 26 257 281 14 322 339 354 334 355 14 13 5
150 149 147 146 140 152 155 151 145 129 131 136 136 139 134 125 109 101 98 87 75 61 62 66 94 91 94 93 98 127 179 326 292 316 61 338 332 335 332 325 320 14 349
150 154 157 158 157 164 169 165 157 146 148 150 138 122 131 138 141 117 105 108 96 81 87 94 99 104 97 89 80 70 48 44 354 344 23 37 340 332 321 315 313 334 329
158 160 167 176 174 174 181 182 180 171 169 167 164 158 157 162 165 158 143 148 148 149 115 94 82 93 102 98 83 101 117 111 353 306 10 38 5 359 330 311 323 327 323